{"data":{"norad_id":62856,"intl_designator":"2025-022C","name":"STARLINK-32860","alt_names":[],"object_type":"PAYLOAD","status":"ACTIVE","operator":null,"country":"US","launch_date":"2025-02-01","launch_site_code":"AFWTR","launch_vehicle":null,"mission":null,"orbit_class":"UNKNOWN","rcs_meters":null,"size_class":null,"mass_kg":null,"dimensions":null,"purposes":["comms"],"wikipedia_slug":null,"has_3d_model":false,"image_url":null,"decayed_at":null,"tle_current":{"epoch":"2026-09-20T09:02:08.145024Z","epoch_age_seconds":178943,"freshness":"STALE","line1":"1 62856U 25022C   26263.37648316  .00013601  00000+0  41285-3 0  9998","line2":"2 62856  53.1597 302.0423 0000906  85.5942 274.5164 15.34406344 91756","mean_motion":15.34406344,"eccentricity":9.06e-5,"inclination_deg":53.1597,"raan_deg":302.0423,"arg_perigee_deg":85.5942,"mean_anomaly_deg":274.5164,"bstar":0.00041285,"rev_number":9175,"period_min":93.847370067964,"perigee_km":462.06460614969,"apogee_km":463.30416298458,"semimajor_km":6840.8213845671,"source":"CELESTRAK","updated_at":"2026-09-22T09:00:49.675910Z"}}}